Location: Arbon
(43.0005°N, 0.7472°E)
Time: 03:38:38
(UTC+00:00)

Cosmos 1300 - Pass Details

Date: 07 August 2020
Orbit: 511 x 514 km, 82.5° (Epoch: 27 September)

Event Time Altitude Azimuth Distance (km) Brightness Sun altitude
Rises 04:18:20 0° 181° (S) 2,614 6.0 -6.8°
Reaches altitude 10° 04:20:27 10° 178° (S) 1,734 5.1 -6.4°
Maximum altitude 04:24:13 68° 96° (E) 558 3.1 -5.8°
Drops below altitude 10° 04:28:02 10° 13° (NNE) 1,750 6.0 -5.2°
Sets 04:30:11 0° 11° (N) 2,642 6.9 -4.9°
